CAPE
1306 1183 1138 1081 990 999 992 1046 880 904 758 887 897 541 812 1046 854 656 529 401 493 873 437 202 135 105 11 75 281 242 208 201 35 0 0 0 9 1 9 2 0 10 26
1229 1082 1239 1154 949 953 1064 1142 989 973 1081 947 765 750 592 803 994 639 717 487 445 640 721 390 232 165 53 0 112 137 93 147 79 0 0 0 0 0 0 0 0 26 14
772 882 958 1301 1041 1116 1085 1131 983 949 843 795 961 932 887 695 641 864 778 828 630 513 626 803 393 263 169 2 79 172 39 0 67 0 0 2 5 0 0 17 16 0 0
467 747 833 863 976 1120 1260 1212 1133 1100 1083 1025 907 925 996 1123 1036 770 796 833 785 756 699 718 862 487 272 140 40 92 42 38 85 111 30 0 0 0 0 0 0 4 1
400 232 184 191 258 307 583 708 627 529 571 1029 1103 1161 1033 874 886 961 1071 1060 935 892 768 753 774 862 755 348 184 0 5 26 108 187 174 5 0 0 0 6 0 1 0
532 248 135 164 145 159 223 339 361 285 242 193 442 890 959 1056 949 963 829 826 970 933 1013 891 681 817 861 887 520 272 16 48 127 194 215 34 0 0 0 0 0 0 0
366 244 168 105 128 153 126 146 91 134 151 109 122 148 576 721 705 502 585 647 701 959 965 859 891 957 800 858 891 690 366 164 108 245 247 73 3 0 0 5 0 0 1
293 123 82 85 33 12 41 34 12 3 0 19 34 49 69 94 83 80 69 89 249 384 441 721 791 804 852 875 930 879 855 712 98 128 216 148 95 0 30 7 2 0 0
233 151 116 22 5 0 6 0 0 0 0 2 0 0 0 10 17 12 21 35 19 21 62 82 235 305 495 772 908 934 857 992 306 76 73 98 363 39 196 123 97 4 1
99 72 34 10 1 8 4 0 0 0 0 0 0 0 0 0 0 0 0 0 0 0 0 2 21 39 38 128 299 585 944 850 712 362 117 52 570 156 240 482 281 66 5
0 0 1 1 0 0 0 0 0 0 0 0 0 0 0 0 0 0 0 0 0 0 0 0 0 0 5 9 43 101 350 875 387 677 563 244 355 149 402 516 502 365 87
0 0 0 0 0 0 0 0 0 0 0 0 0 0 0 0 0 0 0 0 0 0 0 0 0 0 0 0 0 13 240 696 835 332 410 621 262 200 488 538 573 578 453
0 0 0 0 0 0 0 0 0 0 0 0 0 0 0 0 0 0 0 0 0 0 0 0 0 0 0 0 0 0 0 4 518 897 571 359 405 272 344 526 646 591 622
0 0 0 0 0 0 0 0 0 0 0 0 0 0 0 0 0 0 0 0 0 0 0 0 0 0 0 0 0 0 0 0 3 139 578 562 547 585 573 419 671 836 696
0 0 0 0 0 0 0 0 0 0 0 0 0 0 0 0 0 0 0 0 0 0 0 0 0 0 0 0 0 0 0 0 0 0 178 360 473 709 812 785 640 675 910
0 0 0 0 0 0 0 0 0 0 0 0 0 0 0 0 0 0 0 0 0 0 0 0 0 0 0 0 0 0 0 0 0 0 0 36 334 465 834 845 870 786 852
0 0 0 0 0 0 0 0 0 0 0 0 0 0 0 0 0 0 0 0 0 0 0 0 0 0 0 0 0 0 0 0 0 0 0 0 10 315 451 718 902 953 856
0 0 0 0 0 0 0 0 0 0 0 1 0 0 0 0 0 0 0 0 0 0 0 0 0 0 0 0 0 0 0 0 0 0 0 0 0 10 337 489 602 881 964
0 0 0 0 0 0 0 0 0 0 0 14 29 10 0 0 0 0 9 4 1 0 1 1 0 0 0 0 0 0 0 0 0 0 0 0 0 0 12 237 361 693 786
0 0 0 0 0 0 0 0 0 0 0 1 34 52 22 4 0 0 0 0 0 0 0 0 0 1 1 0 0 0 0 0 0 0 0 0 0 0 0 4 426 388 572
0 0 0 0 0 0 0 0 0 0 0 0 10 33 28 20 20 23 2 0 0 0 0 0 0 0 0 0 0 0 0 0 0 0 0 0 0 0 0 2 35 466 297
0 0 0 0 0 0 0 0 0 0 0 0 0 0 30 34 24 4 12 0 0 0 0 0 0 0 0 0 0 0 0 0 0 0 1 1 4 1 0 0 1 32 300
0 0 0 0 0 0 0 0 0 3 3 0 0 0 0 0 5 8 5 10 10 4 0 0 0 0 0 0 0 0 0 0 0 0 0 0 0 35 22 45 18 23 127
0 0 0 0 0 1 1 9 14 33 40 13 7 3 1 0 0 0 0 0 3 4 2 0 0 0 0 0 0 0 7 13 0 0 0 0 0 0 9 44 62 101 138
0 0 0 0 0 0 0 0 0 0 51 32 34 17 7 4 1 0 0 0 0 6 8 5 2 0 0 1 9 9 28 47 43 34 0 0 0 0 1 83 24 1 20
0 0 0 0 0 0 0 0 0 0 0 0 0 0 36 30 16 8 4 1 0 0 0 1 1 0 0 2 12 15 13 34 48 66 39 5 3 0 4 13 8 14 0
CIN
-0 -0 -2 -1 -1 -0 -0 -0 -0 -0 -0 -0 -1 -7 -0 -0 -1 -3 -3 -10 -8 -0 -2 -9 -6 -10 -4 -5 -0 -1 -5 -3 -6 -0 -0 -0 -0 -0 -1 -0 -2 -0 -2
-0 -0 -3 -2 -0 -0 -0 -0 -0 -0 -0 -0 -0 -0 -5 -1 -0 -3 -1 -3 -5 -2 -0 -2 -3 -7 -9 -0 -6 -5 -17 -8 -11 -0 -0 -0 -0 -0 -0 -0 -1 -1 -0
-0 -0 -0 -1 -2 -0 -0 -0 -0 -0 -0 -1 -0 -0 -0 -0 -0 -1 -2 -0 -1 -3 -0 -0 -3 -4 -11 -1 -10 -0 -9 -0 -10 -0 -0 -0 -0 -0 -0 -2 -2 -0 -0
-2 -3 -0 -1 -2 -0 -0 -0 -0 -0 -0 -0 -0 -0 -0 -0 -5 -0 -0 -2 -1 -2 -1 -0 -0 -1 -9 -19 -31 -13 -28 -31 -3 -4 -1 -0 -0 -0 -0 -0 -0 -2 -0
-0 -14 -40 -56 -48 -39 -6 -1 -6 -15 -9 -0 -0 -1 -4 -6 -7 -2 -0 -0 -0 -0 -1 -2 -0 -0 -0 -2 -16 -0 -9 -33 -9 -0 -1 -0 -0 -0 -0 -0 -0 -0 -0
-0 -10 -23 -30 -43 -39 -31 -24 -14 -20 -27 -25 -4 -0 -0 -1 -5 -2 -3 -4 -5 -4 -0 -0 -1 -1 -0 -0 -0 -8 -38 -54 -17 -0 -0 -58 -0 -0 -0 -0 -0 -0 -0
-1 -9 -15 -18 -17 -13 -12 -5 -9 -19 -35 -22 -21 -19 -2 -0 -0 -4 -1 -1 -7 -0 -0 -0 -0 -0 -0 -1 -0 -0 -6 -27 -20 -0 -0 -39 -0 -0 -0 -0 -0 -0 -0
-0 -7 -20 -16 -49 -34 -46 -53 -51 -54 -0 -40 -35 -26 -18 -13 -23 -24 -21 -38 -9 -1 -5 -0 -0 -0 -1 -0 -0 -0 -0 -0 -31 -8 -0 -4 -17 -0 -15 -0 -0 -0 -0
-0 -0 -8 -103 -2 -5 -138 -0 -0 -0 -0 -24 -0 -0 -1 -12 -16 -31 -25 -17 -31 -15 -22 -42 -5 -6 -2 -0 -0 -1 -2 -0 -1 -20 -16 -7 -4 -51 -5 -13 -29 -0 -0
-52 -60 -111 -2 -0 -0 -2 -0 -0 -0 -0 -0 -0 -0 -0 -0 -0 -0 -0 -0 -0 -0 -0 -9 -17 -26 -26 -25 -18 -5 -0 -4 -0 -0 -9 -2 -6 -15 -6 -0 -0 -35 -0
-0 -0 -0 -0 -0 -0 -0 -0 -0 -0 -0 -0 -0 -0 -0 -0 -0 -0 -0 -0 -0 -0 -0 -0 -0 -0 -14 -18 -24 -42 -21 -0 -19 -9 -1 -15 -7 -17 -1 -0 -0 -0 -25
-0 -0 -0 -0 -0 -0 -0 -0 -0 -0 -0 -0 -0 -0 -0 -0 -0 -0 -0 -0 -0 -0 -0 -0 -0 -0 -0 -0 -0 -9 -10 -0 -0 -7 -4 -12 -7 -11 -0 -0 -0 -0 -0
-0 -0 -0 -0 -0 -0 -0 -0 -0 -0 -0 -0 -0 -0 -0 -0 -0 -0 -0 -0 -0 -0 -0 -0 -0 -0 -0 -0 -0 -0 -0 -1 -0 -0 -0 -19 -1 -1 -1 -0 -0 -0 -0
-0 -0 -0 -0 -0 -0 -0 -0 -0 -0 -0 -0 -0 -0 -0 -0 -0 -0 -0 -0 -0 -0 -0 -0 -0 -0 -0 -0 -0 -0 -0 -0 -0 -4 -0 -2 -0 -0 -0 -0 -0 -0 -0
-0 -0 -0 -0 -0 -0 -0 -0 -0 -0 -0 -0 -0 -0 -0 -0 -0 -0 -0 -0 -0 -0 -0 -0 -0 -0 -0 -0 -0 -0 -0 -0 -0 -0 -0 -1 -9 -0 -0 -0 -0 -0 -0
-0 -0 -0 -0 -0 -0 -0 -0 -0 -0 -0 -0 -0 -0 -0 -0 -0 -0 -0 -0 -0 -0 -0 -0 -0 -0 -0 -0 -0 -0 -0 -0 -0 -0 -0 -0 -2 -1 -0 -0 -0 -0 -0
-0 -0 -0 -0 -0 -0 -0 -0 -0 -0 -0 -0 -0 -0 -0 -0 -0 -0 -0 -0 -0 -0 -0 -0 -0 -0 -0 -0 -0 -0 -0 -0 -0 -0 -0 -0 -0 -4 -1 -0 -0 -0 -0
-0 -0 -0 -0 -0 -0 -0 -0 -0 -0 -0 -1 -0 -0 -0 -0 -0 -0 -0 -0 -0 -0 -0 -0 -0 -0 -0 -0 -0 -0 -0 -0 -0 -0 -0 -0 -0 -0 -0 -0 -0 -0 -0
-0 -0 -0 -0 -0 -0 -0 -0 -0 -0 -0 -7 -0 -0 -0 -0 -0 -0 -0 -0 -0 -0 -0 -0 -0 -0 -0 -0 -0 -0 -0 -0 -0 -0 -0 -0 -0 -0 -0 -1 -0 -0 -0
-0 -0 -0 -0 -0 -0 -0 -0 -0 -0 -0 -4 -4 -0 -1 -2 -0 -0 -0 -0 -0 -0 -0 -0 -0 -0 -0 -0 -0 -0 -0 -0 -0 -0 -0 -0 -0 -0 -0 -0 -0 -0 -0
-0 -0 -0 -0 -0 -0 -0 -0 -0 -0 -0 -0 -11 -10 -12 -13 -13 -8 -1 -0 -0 -0 -0 -0 -0 -0 -0 -0 -0 -0 -0 -0 -0 -0 -0 -0 -0 -0 -0 -0 -5 -0 -5
-0 -0 -0 -0 -0 -0 -0 -0 -0 -0 -0 -0 -0 -0 -27 -19 -14 -12 -12 -1 -0 -0 -0 -0 -0 -0 -0 -0 -0 -0 -0 -0 -0 -0 -0 -0 -0 -0 -0 -0 -0 -16 -1
-0 -0 -0 -0 -0 -0 -0 -0 -0 -0 -0 -0 -0 -0 -0 -12 -53 -49 -46 -17 -3 -0 -0 -0 -0 -0 -0 -0 -0 -0 -0 -0 -0 -0 -0 -0 -0 -3 -5 -1 -0 -0 -17
-0 -0 -0 -0 -0 -0 -0 -0 -0 -0 -0 -0 -0 -0 -0 -0 -0 -0 -0 -0 -0 -0 -2 -0 -0 -0 -0 -0 -0 -0 -0 -0 -0 -0 -0 -0 -0 -0 -10 -0 -0 -0 -44
-0 -0 -0 -0 -0 -0 -0 -0 -0 -0 -0 -0 -0 -0 -0 -0 -0 -0 -0 -0 -0 -0 -32 -0 -0 -0 -0 -0 -0 -0 -0 -0 -0 -0 -0 -0 -0 -0 -0 -0 -4 -0 -0
-0 -0 -0 -0 -0 -0 -0 -0 -0 -0 -0 -0 -0 -0 -0 -0 -0 -0 -0 -0 -0 -0 -0 -0 -0 -0 -0 -0 -0 -0 -0 -0 -0 -0 -0 -0 -0 -0 -0 -1 -1 -3 -0
Wind_Speed
20 25 27 23 24 24 26 26 25 26 24 23 25 25 27 28 26 25 26 24 23 23 24 24 23 22 nan nan 22 25 27 29 nan nan nan nan nan nan nan nan nan nan nan
22 27 31 28 28 27 26 26 27 29 30 27 23 22 24 27 28 26 25 26 24 25 23 23 22 21 nan nan 18 19 nan 23 nan nan nan nan nan nan nan nan nan nan nan
29 30 31 32 31 33 32 32 30 29 29 31 28 27 27 26 26 24 23 23 25 24 24 22 22 21 20 nan nan 18 nan nan nan nan nan nan nan nan nan nan nan nan nan
31 32 35 41 44 45 44 41 39 37 33 31 30 30 29 28 28 25 24 22 21 23 22 21 21 21 20 19 nan nan nan nan nan 17 nan nan nan nan nan nan nan nan nan
34 35 36 41 42 43 44 42 43 43 41 40 37 36 31 30 32 30 29 28 26 24 23 23 21 20 19 19 19 nan nan nan 17 16 15 nan nan nan nan nan nan nan nan
34 36 41 46 46 47 49 46 49 48 46 45 42 42 40 41 42 44 38 31 31 30 29 26 23 20 19 18 19 18 nan nan 19 15 19 nan nan nan nan nan nan nan nan
35 37 42 47 48 50 52 48 nan 49 51 50 48 47 48 48 48 49 49 51 45 43 40 34 28 26 23 19 18 19 19 20 20 22 22 nan nan nan nan nan nan nan nan
40 42 nan nan nan nan nan nan nan nan nan nan nan nan nan nan nan nan nan nan 49 47 44 48 46 40 31 25 22 19 20 24 nan 24 26 26 nan nan nan nan nan nan nan
43 44 45 nan nan nan nan nan nan nan nan nan nan nan nan nan nan nan nan nan nan nan nan nan 44 52 46 44 33 26 23 26 26 nan nan nan 32 nan 23 24 nan nan nan
nan nan nan nan nan nan nan nan nan nan nan nan nan nan nan nan nan nan nan nan nan nan nan nan nan nan nan 43 43 47 35 26 26 29 33 nan 38 27 24 24 27 nan nan
nan nan nan nan nan nan nan nan nan nan nan nan nan nan nan nan nan nan nan nan nan nan nan nan nan nan nan nan nan 47 41 37 31 36 39 37 39 28 25 25 28 30 nan
nan nan nan nan nan nan nan nan nan nan nan nan nan nan nan nan nan nan nan nan nan nan nan nan nan nan nan nan nan nan 45 44 40 41 32 29 37 27 25 26 27 28 27
nan nan nan nan nan nan nan nan nan nan nan nan nan nan nan nan nan nan nan nan nan nan nan nan nan nan nan nan nan nan nan nan 46 43 41 29 14 12 16 25 29 25 22
nan nan nan nan nan nan nan nan nan nan nan nan nan nan nan nan nan nan nan nan nan nan nan nan nan nan nan nan nan nan nan nan nan 45 40 27 20 18 15 14 11 15 23
nan nan nan nan nan nan nan nan nan nan nan nan nan nan nan nan nan nan nan nan nan nan nan nan nan nan nan nan nan nan nan nan nan nan 45 35 27 23 8 3 14 10 6
nan nan nan nan nan nan nan nan nan nan nan nan nan nan nan nan nan nan nan nan nan nan nan nan nan nan nan nan nan nan nan nan nan nan nan nan 38 28 19 14 15 11 11
nan nan nan nan nan nan nan nan nan nan nan nan nan nan nan nan nan nan nan nan nan nan nan nan nan nan nan nan nan nan nan nan nan nan nan nan nan 41 31 22 19 13 9
nan nan nan nan nan nan nan nan nan nan nan nan nan nan nan nan nan nan nan nan nan nan nan nan nan nan nan nan nan nan nan nan nan nan nan nan nan nan 48 34 25 19 14
nan nan nan nan nan nan nan nan nan nan nan nan nan nan nan nan nan nan nan nan nan nan nan nan nan nan nan nan nan nan nan nan nan nan nan nan nan nan nan 43 35 28 19
nan nan nan nan nan nan nan nan nan nan nan nan nan nan nan nan nan nan nan nan nan nan nan nan nan nan nan nan nan nan nan nan nan nan nan nan nan nan nan nan 47 42 28
nan nan nan nan nan nan nan nan nan nan nan nan nan nan nan nan nan nan nan nan nan nan nan nan nan nan nan nan nan nan nan nan nan nan nan nan nan nan nan nan nan 51 48
nan nan nan nan nan nan nan nan nan nan nan nan nan nan nan nan nan nan nan nan nan nan nan nan nan nan nan nan nan nan nan nan nan nan nan nan nan nan nan nan nan nan 51
nan nan nan nan nan nan nan nan nan nan nan nan nan nan nan nan nan nan nan nan nan nan nan nan nan nan nan nan nan nan nan nan nan nan nan nan nan nan nan nan nan nan 56
nan nan nan nan nan nan nan nan nan nan nan nan nan nan nan nan nan nan nan nan nan nan nan nan nan nan nan nan nan nan nan nan nan nan nan nan nan nan nan nan nan 66 60
nan nan nan nan nan nan nan nan nan nan nan nan nan nan nan nan nan nan nan nan nan nan nan nan nan nan nan nan nan nan nan nan nan nan nan nan nan nan nan nan nan nan nan
nan nan nan nan nan nan nan nan nan nan nan nan nan nan nan nan nan nan nan nan nan nan nan nan nan nan nan nan nan nan nan nan nan nan nan nan nan nan nan nan nan nan nan
Wind_Direction
271 283 279 277 273 272 269 266 268 263 260 261 263 258 256 250 256 257 259 256 251 253 261 259 256 249 nan nan 239 239 235 231 nan nan nan nan nan nan nan nan nan nan nan
264 276 269 267 270 269 267 264 260 259 251 264 269 264 256 253 256 256 253 256 256 254 254 257 254 250 nan nan 230 230 nan 223 nan nan nan nan nan nan nan nan nan nan nan
246 256 270 269 270 268 264 262 263 261 258 256 257 264 267 262 257 257 258 249 248 253 251 250 247 247 244 nan nan 222 nan nan nan nan nan nan nan nan nan nan nan nan nan
258 258 258 258 260 258 257 258 257 254 254 254 252 251 252 252 255 253 252 250 238 234 240 243 243 240 238 236 nan nan nan nan nan 217 nan nan nan nan nan nan nan nan nan
266 270 267 260 262 262 261 257 260 257 252 248 250 250 249 252 254 251 245 243 241 239 230 226 231 234 236 234 233 nan nan nan 219 218 215 nan nan nan nan nan nan nan nan
271 271 268 266 265 260 259 259 258 259 255 250 247 248 249 249 244 245 245 249 249 242 236 231 223 232 229 236 235 232 nan nan 227 228 235 nan nan nan nan nan nan nan nan
276 277 270 264 264 263 262 258 nan 257 257 255 250 247 245 247 248 244 246 247 248 242 241 238 234 228 228 229 239 243 240 237 231 235 242 nan nan nan nan nan nan nan nan
283 280 nan nan nan nan nan nan nan nan nan nan nan nan nan nan nan nan nan nan 241 238 233 236 235 231 227 224 229 240 249 249 nan 234 242 245 nan nan nan nan nan nan nan
279 277 277 nan nan nan nan nan nan nan nan nan nan nan nan nan nan nan nan nan nan nan nan nan 226 225 222 223 223 228 240 251 248 nan nan nan 260 nan 258 260 nan nan nan
nan nan nan nan nan nan nan nan nan nan nan nan nan nan nan nan nan nan nan nan nan nan nan nan nan nan nan 226 226 225 226 246 254 248 247 nan 259 263 262 262 267 nan nan
nan nan nan nan nan nan nan nan nan nan nan nan nan nan nan nan nan nan nan nan nan nan nan nan nan nan nan nan nan 228 226 240 245 243 242 250 251 253 255 256 259 264 nan
nan nan nan nan nan nan nan nan nan nan nan nan nan nan nan nan nan nan nan nan nan nan nan nan nan nan nan nan nan nan 235 231 240 244 241 222 248 247 248 250 255 265 270
nan nan nan nan nan nan nan nan nan nan nan nan nan nan nan nan nan nan nan nan nan nan nan nan nan nan nan nan nan nan nan nan 238 238 252 276 241 237 239 248 251 255 266
nan nan nan nan nan nan nan nan nan nan nan nan nan nan nan nan nan nan nan nan nan nan nan nan nan nan nan nan nan nan nan nan nan 240 240 251 281 271 250 248 250 255 261
nan nan nan nan nan nan nan nan nan nan nan nan nan nan nan nan nan nan nan nan nan nan nan nan nan nan nan nan nan nan nan nan nan nan 243 234 248 260 217 248 229 245 255
nan nan nan nan nan nan nan nan nan nan nan nan nan nan nan nan nan nan nan nan nan nan nan nan nan nan nan nan nan nan nan nan nan nan nan nan 240 247 268 287 284 281 284
nan nan nan nan nan nan nan nan nan nan nan nan nan nan nan nan nan nan nan nan nan nan nan nan nan nan nan nan nan nan nan nan nan nan nan nan nan 244 246 253 270 271 278
nan nan nan nan nan nan nan nan nan nan nan nan nan nan nan nan nan nan nan nan nan nan nan nan nan nan nan nan nan nan nan nan nan nan nan nan nan nan 241 239 246 249 266
nan nan nan nan nan nan nan nan nan nan nan nan nan nan nan nan nan nan nan nan nan nan nan nan nan nan nan nan nan nan nan nan nan nan nan nan nan nan nan 242 239 242 247
nan nan nan nan nan nan nan nan nan nan nan nan nan nan nan nan nan nan nan nan nan nan nan nan nan nan nan nan nan nan nan nan nan nan nan nan nan nan nan nan 244 243 243
nan nan nan nan nan nan nan nan nan nan nan nan nan nan nan nan nan nan nan nan nan nan nan nan nan nan nan nan nan nan nan nan nan nan nan nan nan nan nan nan nan 242 242
nan nan nan nan nan nan nan nan nan nan nan nan nan nan nan nan nan nan nan nan nan nan nan nan nan nan nan nan nan nan nan nan nan nan nan nan nan nan nan nan nan nan 239
nan nan nan nan nan nan nan nan nan nan nan nan nan nan nan nan nan nan nan nan nan nan nan nan nan nan nan nan nan nan nan nan nan nan nan nan nan nan nan nan nan nan 239
nan nan nan nan nan nan nan nan nan nan nan nan nan nan nan nan nan nan nan nan nan nan nan nan nan nan nan nan nan nan nan nan nan nan nan nan nan nan nan nan nan 235 237
nan nan nan nan nan nan nan nan nan nan nan nan nan nan nan nan nan nan nan nan nan nan nan nan nan nan nan nan nan nan nan nan nan nan nan nan nan nan nan nan nan nan nan
nan nan nan nan nan nan nan nan nan nan nan nan nan nan nan nan nan nan nan nan nan nan nan nan nan nan nan nan nan nan nan nan nan nan nan nan nan nan nan nan nan nan nan